This is the latest recevied weather packets stored in our database for station/object KB1ZFK. If no packets are shown the sender has not sent any weather packets the latest 1 day(s).
| Time | Temp. | Humidity | Pressure | Rain* | Wind** | Luminosity | Snow |
|---|---|---|---|---|---|---|---|
| 1778025540 | 23.33° C | 46% | 1006.8 hPa | 0 mm | 0.45 m/s, 328° | 0 W/m² | - |
| 1778025238 | 23.33° C | 46% | 1006.7 hPa | 0 mm | 0.45 m/s, 330° | 0 W/m² | - |
| 1778024934 | 23.33° C | 45% | 1006.4 hPa | 0 mm | 1.34 m/s, 162° | 0 W/m² | - |
| 1778024632 | 23.33° C | 45% | 1006.5 hPa | 0 mm | 0.45 m/s, 324° | 0 W/m² | - |
| 1778024329 | 23.89° C | 45% | 1006.1 hPa | 0 mm | 0.45 m/s, 333° | 0 W/m² | - |
| 1778024027 | 23.33° C | 45% | 1006 hPa | 0 mm | 1.34 m/s, 221° | 2 W/m² | - |
| 1778023724 | 23.89° C | 45% | 1006.1 hPa | 0 mm | 0.89 m/s, 157° | 3 W/m² | - |
| 1778023422 | 23.89° C | 45% | 1005.9 hPa | 0 mm | 0.89 m/s, 295° | 5 W/m² | - |
| 1778023118 | 23.89° C | 45% | 1005.9 hPa | 0 mm | 0.89 m/s, 28° | 10 W/m² | - |
| 1778022815 | 23.89° C | 45% | 1006 hPa | 0 mm | 1.79 m/s, 338° | 16 W/m² | - |
| 1778022514 | 23.89° C | 45% | 1005.7 hPa | 0 mm | 1.79 m/s, 57° | 19 W/m² | - |
| 1778022211 | 23.89° C | 45% | 1005.6 hPa | 0 mm | 0 m/s | 18 W/m² | - |
| 1778021907 | 23.89° C | 45% | 1005.3 hPa | 0 mm | 0.45 m/s, 321° | 17 W/m² | - |
| 1778021604 | 24.44° C | 44% | 1005.4 hPa | 0 mm | 1.34 m/s, 244° | 17 W/m² | - |
| 1778021299 | 24.44° C | 44% | 1005.4 hPa | 0 mm | 0.89 m/s, 292° | 19 W/m² | - |
| 1778020998 | 24.44° C | 44% | 1005.2 hPa | 0 mm | 0.89 m/s, 297° | 21 W/m² | - |
| 1778020695 | 24.44° C | 44% | 1005.3 hPa | 0 mm | 0.89 m/s, 314° | 25 W/m² | - |
| 1778020392 | 25° C | 43% | 1005.1 hPa | 0 mm | 1.34 m/s, 116° | 29 W/m² | - |
| 1778020087 | 25° C | 42% | 1005 hPa | 0 mm | 2.24 m/s, 165° | 34 W/m² | - |
| 1778019783 | 25.56° C | 42% | 1005 hPa | 0 mm | 2.24 m/s, 336° | 42 W/m² | - |
| 1778019480 | 25.56° C | 41% | 1005 hPa | 0 mm | 0.89 m/s, 89° | 50 W/m² | - |
| 1778019177 | 25.56° C | 41% | 1004.9 hPa | 0 mm | 1.34 m/s, 343° | 78 W/m² | - |
| 1778018874 | 25.56° C | 40% | 1004.6 hPa | 0 mm | 2.68 m/s, 179° | 78 W/m² | - |
| 1778018571 | 26.11° C | 40% | 1004.7 hPa | 0 mm | 1.34 m/s, 318° | 76 W/m² | - |
| 1778018269 | 26.11° C | 41% | 1004.8 hPa | 0 mm | 0.89 m/s, 77° | 140 W/m² | - |
* Rain latest hour (hover to see other rain measurements)
** Current wind speed in m/s (hover to see current wind gust speed)